Simultaneous Nadir Overpasses (SNOs) Predictions

Prediction of SNOs between GOES-16 and AQUA Satellite Orbit:

Table of predicted SNOs for the next 14.0 days since TLE Epoch: 12/26/2020
Index Date Time (GOES-16) GOES-16 Lat,Lon AQUA Lat,Lon Distance(km) Time Diff (sec)
1 12/27/2020 18:29:09 -0.02, -75.24 0.40, -73.16 235.96 80
2 12/28/2020 06:50:24 0.02, -75.24 0.70, -78.31 349.51 80
3 12/30/2020 06:38:13 0.02, -75.27 0.06, -75.36 10.85 80
4 01/01/2021 06:23:22 0.02, -75.30 -0.59, -72.41 328.44 80
5 01/01/2021 18:44:47 -0.01, -75.30 -0.50, -77.60 261.49 80
6 01/03/2021 18:35:16 0.00, -75.34 0.16, -74.65 78.11 80
7 01/05/2021 18:23:05 0.01, -75.37 0.82, -71.70 418.47 80
8 01/06/2021 06:44:20 -0.01, -75.39 0.29, -76.85 165.92 80
9 01/08/2021 06:29:28 -0.01, -75.43 -0.31, -73.89 175.18 80
10 01/08/2021 18:50:53 0.00, -75.44 -0.76, -79.09 414.68 80
